Jackson, MI

11:02 PM EST on January 21, 2017 (GMT -0500)
Jackson

Weather History for KJXN - June, 2013

Change the Weather History Date:

Thursday, June 20, 2013

  Actual Average Record
Temperature  
Mean Temperature 66 °F 69 °F  
Max Temperature 81 °F 80 °F 98 °F (1953)
Min Temperature 50 °F 58 °F 42 °F (2003)
Degree Days  
Heating Degree Days 0 1  
Month to date heating degree days 57 46  
Since 1 June heating degree days 57 46  
Since 1 July heating degree days 6561 6648  
Cooling Degree Days 1 5  
Month to date cooling degree days 37 69  
Year to date cooling degree days 104 106  
Since 1 June cooling degree days 37 69  
Growing Degree Days 16 (Base 50)    
Moisture  
Dew Point 51 °F    
Average Humidity 60    
Maximum Humidity 83    
Minimum Humidity 36    
Precipitation  
Precipitation 0.00 in 0.11 in 1.42 in (1987)
Month to date precipitation 2.70 2.18  
Year to date precipitation 15.32 12.78  
Sea Level Pressure  
Sea Level Pressure 30.18 in    
Wind  
Wind Speed 3 mph (SSE)    
Max Wind Speed 12 mph    
Max Gust Speed 15 mph    
Visibility 10 miles    
Events      
T = Trace of Precipitation, MM = Missing Value Source: NWS Daily Summary

Daily Weather History Graph

Daily Weather History Graph

Search for Another Location

Airport or City:

Trip Planner

Search our weather history database for the weather conditions in past years. The results will help you decide how hot, cold, wet, or windy it might be!

Date:

Astronomy

Jun. 20, 2013 Rise Set
Actual Time 6:01 AM EDT 9:17 PM EDT
Civil Twilight 5:26 AM EDT 9:52 PM EDT
Nautical Twilight 4:41 AM EDT 10:37 PM EDT
Astronomical Twilight 3:47 AM EDT 11:31 PM EDT
Moon 6:17 PM EDT (6/20) 3:29 AM EDT (6/20)
Length of Visible Light 16h 25m
Length of Day
15h 16m
Waxing Gibbous, 89% of the Moon is Illuminated
Jun 20
Waxing Gibbous
Jun 23
Full
Jun 30
Last Quarter
Jul 8
New
Jul 15
First Quarter

Hourly Weather History & Observations

Time (EDT) Temp. Heat Index Dew Point Humidity Pressure Visibility Wind Dir Wind Speed Gust Speed Precip Events Conditions
12:56 AM 57.9 °F - 50.0 °F 75% 30.16 in 10.0 mi Calm Calm - N/A   Clear
1:56 AM 55.9 °F - 48.9 °F 77% 30.16 in 10.0 mi SSE 3.5 mph - N/A   Clear
2:56 AM 54.0 °F - 48.0 °F 80% 30.16 in 10.0 mi SSE 3.5 mph - N/A   Clear
3:56 AM 55.9 °F - 48.0 °F 75% 30.17 in 10.0 mi South 5.8 mph - N/A   Clear
4:56 AM 54.0 °F - 46.9 °F 77% 30.17 in 10.0 mi SE 3.5 mph - N/A   Clear
5:56 AM 52.0 °F - 46.0 °F 80% 30.18 in 10.0 mi Calm Calm - N/A   Clear
6:56 AM 54.0 °F - 46.9 °F 77% 30.19 in 10.0 mi Calm Calm - N/A   Clear
7:56 AM 60.1 °F - 48.0 °F 64% 30.20 in 10.0 mi SSE 3.5 mph - N/A   Clear
8:56 AM 66.0 °F - 48.9 °F 54% 30.21 in 10.0 mi South 5.8 mph - N/A   Clear
9:56 AM 70.0 °F - 51.1 °F 51% 30.21 in 10.0 mi South 6.9 mph - N/A   Clear
10:56 AM 73.9 °F - 54.0 °F 50% 30.20 in 10.0 mi South 5.8 mph - N/A   Clear
11:56 AM 75.0 °F - 52.0 °F 44% 30.21 in 10.0 mi Calm Calm - N/A   Clear
12:56 PM 77.0 °F - 52.0 °F 42% 30.19 in 10.0 mi Variable 4.6 mph - N/A   Clear
1:56 PM 78.1 °F - 53.1 °F 42% 30.20 in 10.0 mi Calm Calm - N/A   Partly Cloudy
2:56 PM 80.1 °F 80.0 °F 54.0 °F 40% 30.19 in 10.0 mi WNW 9.2 mph - N/A   Partly Cloudy
3:56 PM 81.0 °F 80.7 °F 55.0 °F 41% 30.18 in 10.0 mi Variable 3.5 mph - N/A   Clear
4:56 PM 80.1 °F - 52.0 °F 38% 30.17 in 10.0 mi Calm Calm - N/A   Clear
5:56 PM 80.1 °F 79.9 °F 53.1 °F 39% 30.17 in 10.0 mi SSW 4.6 mph - N/A   Clear
6:56 PM 80.1 °F 79.9 °F 53.1 °F 39% 30.15 in 10.0 mi Calm Calm - N/A   Clear
7:56 PM 78.1 °F - 53.1 °F 42% 30.16 in 10.0 mi Calm Calm - N/A   Clear
8:56 PM 75.0 °F - 54.0 °F 48% 30.15 in 10.0 mi Calm Calm - N/A   Clear
9:56 PM 70.0 °F - 55.0 °F 59% 30.16 in 10.0 mi Calm Calm - N/A   Clear
10:56 PM 68.0 °F - 55.9 °F 65% 30.18 in 10.0 mi ESE 6.9 mph - N/A   Clear
11:56 PM 66.0 °F - 55.0 °F 68% 30.19 in 10.0 mi ESE 3.5 mph - N/A   Clear